Location: Ferchesar
(52.6477°N, 12.4298°E)
Time: 15:33:14
(UTC+01:00)

Vanguard 3 - Pass Details

Date: 03 December 2021
Orbit: 508 x 3260 km, 33.3° (Epoch: 25 January)

Event Time Altitude Azimuth Distance (km) Brightness Sun altitude
Rises 06:34:36 0° 251° (WSW) 7,218 11.5 -12.4°
Reaches altitude 10° 06:40:14 10° 244° (WSW) 6,093 11.2 -11.6°
Maximum altitude 06:55:40 35° 189° (S) 3,626 10.6 -9.5°
Drops below altitude 10° 07:06:30 10° 130° (SE) 4,284 12.4 -8.0°
Sets 07:09:40 0° 121° (ESE) 4,925 13.7 -7.6°
